sat.trackr.live / text

‹ back to catalog

STARLINK-3364

NORAD 51152 · 2022-005BA

PAYLOAD ACTIVE UNKNOWN

§ Identity

Operator
Country
US
Launch date
2022-01-19
Launch site
AFETR
Launch vehicle
Mass (kg)
RCS (m²)

Purposes: comms

External: N2YO · Heavens-Above · Gunter

§ Orbital elements

Epoch: 2026-05-24T19:27:22.967136Z

Period
95.44 min
Inclination
53.2150°
Eccentricity
0.0001467
Mean motion
15.08836789 rev/d
Perigee alt
538.7 km
Apogee alt
540.8 km
Semi-major
6,917.9 km
B*
3.2223e-5
RAAN
327.0158°
Arg perigee
92.4220°
Mean anomaly
267.6940°
Rev number
24,009

§ Raw data

STARLINK-33641 51152U 22005BA  26144.81068249  .00000225  00000+0  32223-4 0  99922 51152  53.2150 327.0158 0001467  92.4220 267.6940 15.08836789240099

JSON: /api/v1/satellites/51152 · /tle

For live sub-satellite position, see the globe view (requires WebGL).

§ Visibility from observer

Set your observer location to see the next 7 days of passes ≥ 10°. The values pass through the URL so the page stays shareable.

No JS? Fill the form by hand. The geolocation button needs JavaScript.